PGT92GW LTFJ-LOWW

Flight info

Callsign PGT92GW
Flight time 1h 52m
Altitude 34000
Route TUDBU DCT UPAMA DCT NEKUL DCT TEGRI DCT ERGUZ DCT BALUX DCT TORNO DCT NATEX NATEX2W
Aircraft A21N/M-SDE3FGHIRWY/LB1

Departure

Time 2026-04-22 11:36
Airport Istanbul Sabiha Gökçen International Airport (LTFJ)

Arrival

Time 2026-04-22 13:28
Airport Vienna International Airport (LOWW)
Time Latitude Longitude Altitude Speed Heading
2026-04-22 11:07 40.90348 29.30955 321 ft 0 kts 333°
2026-04-22 11:24 40.90343 29.30959 321 ft 2 kts 333°
2026-04-22 11:25 40.90330 29.30968 321 ft 2 kts 333°
2026-04-22 11:25 40.90316 29.30977 321 ft 2 kts 333°
2026-04-22 11:25 40.90303 29.30987 321 ft 2 kts 310°
2026-04-22 11:25 40.90295 29.31004 321 ft 2 kts 282°
2026-04-22 11:26 40.90295 29.31023 321 ft 2 kts 252°
2026-04-22 11:26 40.90302 29.31041 321 ft 2 kts 239°
2026-04-22 11:26 40.90309 29.31058 321 ft 2 kts 245°
2026-04-22 11:26 40.90311 29.31065 321 ft 0 kts 243°
2026-04-22 11:28 40.90310 29.31059 321 ft 2 kts 243°
2026-04-22 11:29 40.90293 29.31016 321 ft 7 kts 245°
2026-04-22 11:29 40.90286 29.30995 321 ft 3 kts 244°
2026-04-22 11:29 40.90269 29.30949 321 ft 7 kts 243°
2026-04-22 11:29 40.90237 29.30884 321 ft 9 kts 210°
2026-04-22 11:30 40.90168 29.30904 321 ft 10 kts 154°
2026-04-22 11:30 40.90096 29.30928 321 ft 11 kts 193°
2026-04-22 11:30 40.90041 29.30856 321 ft 11 kts 243°
2026-04-22 11:30 40.90004 29.30755 321 ft 12 kts 244°
2026-04-22 11:31 40.89964 29.30648 321 ft 13 kts 244°
2026-04-22 11:31 40.89924 29.30539 321 ft 13 kts 244°
2026-04-22 11:31 40.89882 29.30425 321 ft 13 kts 244°
2026-04-22 11:31 40.89840 29.30309 321 ft 14 kts 244°
2026-04-22 11:32 40.89797 29.30194 321 ft 14 kts 244°
2026-04-22 11:32 40.89753 29.30074 321 ft 14 kts 244°
2026-04-22 11:32 40.89709 29.29954 321 ft 14 kts 244°
2026-04-22 11:32 40.89664 29.29832 321 ft 14 kts 244°
2026-04-22 11:33 40.89618 29.29707 321 ft 15 kts 244°
2026-04-22 11:33 40.89572 29.29583 321 ft 15 kts 244°
2026-04-22 11:33 40.89526 29.29458 322 ft 15 kts 244°
2026-04-22 11:33 40.89481 29.29335 322 ft 13 kts 244°
2026-04-22 11:34 40.89432 29.29261 322 ft 10 kts 202°
2026-04-22 11:34 40.89360 29.29278 322 ft 11 kts 154°
2026-04-22 11:34 40.89289 29.29325 322 ft 10 kts 150°
2026-04-22 11:34 40.89278 29.29353 322 ft 0 kts 60°
2026-04-22 11:35 40.89280 29.29358 322 ft 1 kts 64°
2026-04-22 11:35 40.89333 29.29505 322 ft 50 kts 64°
2026-04-22 11:35 40.89594 29.30211 322 ft 117 kts 65°
2026-04-22 11:35 40.90032 29.31419 365 ft 166 kts 62°
2026-04-22 11:36 40.90525 29.32812 952 ft 170 kts 61°
2026-04-22 11:36 40.91037 29.34193 1709 ft 171 kts 59°
2026-04-22 11:36 40.91586 29.35626 2301 ft 181 kts 59°
2026-04-22 11:36 40.92170 29.37142 2883 ft 192 kts 60°
2026-04-22 11:37 40.92774 29.38764 3449 ft 205 kts 61°
2026-04-22 11:37 40.93431 29.40561 3830 ft 228 kts 61°
2026-04-22 11:37 40.94152 29.42533 4434 ft 242 kts 62°
2026-04-22 11:37 40.94888 29.44547 5079 ft 254 kts 62°
2026-04-22 11:38 40.95667 29.46680 5817 ft 262 kts 62°
2026-04-22 11:38 40.96469 29.48885 6504 ft 269 kts 62°
2026-04-22 11:38 40.98127 29.53424 7418 ft 282 kts 62°
2026-04-22 11:39 40.98974 29.55735 8235 ft 284 kts 63°
2026-04-22 11:39 40.99852 29.58111 8919 ft 291 kts 60°
2026-04-22 11:39 41.01147 29.60169 9536 ft 296 kts 32°
2026-04-22 11:39 41.03007 29.61198 10186 ft 295 kts
2026-04-22 11:40 41.05067 29.61042 10657 ft 299 kts 340°
2026-04-22 11:40 41.07092 29.60223 11021 ft 314 kts 338°
2026-04-22 11:40 41.09237 29.59335 11346 ft 332 kts 338°
2026-04-22 11:40 41.11532 29.58416 11657 ft 349 kts 338°
2026-04-22 11:41 41.13903 29.57497 12138 ft 359 kts 338°
2026-04-22 11:41 41.16279 29.56595 12786 ft 363 kts 338°
2026-04-22 11:41 41.18729 29.55669 13469 ft 365 kts 336°
2026-04-22 11:41 41.21039 29.54448 14093 ft 356 kts 320°
2026-04-22 11:42 41.22796 29.52210 14759 ft 345 kts 303°
2026-04-22 11:42 41.24280 29.49720 15425 ft 347 kts 302°
2026-04-22 11:42 41.25780 29.47210 16018 ft 351 kts 303°
2026-04-22 11:42 41.27327 29.44685 16627 ft 355 kts 303°
2026-04-22 11:43 41.28921 29.42131 17215 ft 359 kts 304°
2026-04-22 11:43 41.30511 29.39617 17772 ft 362 kts 304°
2026-04-22 11:43 41.32156 29.37032 18331 ft 366 kts 304°
2026-04-22 11:43 41.33794 29.34471 18879 ft 369 kts 304°
2026-04-22 11:44 41.35459 29.31874 19460 ft 371 kts 304°
2026-04-22 11:44 41.37133 29.29261 20041 ft 372 kts 304°
2026-04-22 11:44 41.38817 29.26637 20605 ft 374 kts 304°
2026-04-22 11:44 41.40514 29.23991 21138 ft 376 kts 304°
2026-04-22 11:45 41.42195 29.21361 21653 ft 378 kts 304°
2026-04-22 11:45 41.43918 29.18671 22174 ft 379 kts 304°
2026-04-22 11:45 41.45616 29.16013 22664 ft 381 kts 304°
2026-04-22 11:45 41.47344 29.13309 23145 ft 383 kts 304°
2026-04-22 11:46 41.49070 29.10605 23626 ft 385 kts 304°
2026-04-22 11:46 41.50796 29.07899 24059 ft 387 kts 304°
2026-04-22 11:46 41.52548 29.05145 24373 ft 392 kts 304°
2026-04-22 11:46 41.54322 29.02362 24733 ft 395 kts 303°
2026-04-22 11:47 41.55964 28.99463 25108 ft 389 kts 294°
2026-04-22 11:47 41.57127 28.96227 25550 ft 386 kts 289°
2026-04-22 11:47 41.58198 28.92939 25939 ft 388 kts 289°
2026-04-22 11:47 41.59266 28.89663 26294 ft 390 kts 288°
2026-04-22 11:48 41.60355 28.86358 26624 ft 392 kts 289°
2026-04-22 11:48 41.61473 28.83016 26970 ft 393 kts 289°
2026-04-22 11:48 41.62588 28.79711 27422 ft 392 kts 289°
2026-04-22 11:48 41.63704 28.76411 27952 ft 388 kts 290°
2026-04-22 11:49 41.64817 28.73133 28433 ft 386 kts 290°
2026-04-22 11:49 41.65922 28.69875 28864 ft 383 kts 290°
2026-04-22 11:49 41.67009 28.66679 29290 ft 381 kts 289°
2026-04-22 11:49 41.68108 28.63446 29715 ft 380 kts 289°
2026-04-22 11:50 41.69185 28.60263 30111 ft 378 kts 289°
2026-04-22 11:50 41.70270 28.57059 30529 ft 375 kts 289°
2026-04-22 11:50 41.71138 28.54490 30844 ft 374 kts 289°
2026-04-22 11:50 41.72199 28.51355 31167 ft 373 kts 290°
2026-04-22 11:51 41.73267 28.48198 31492 ft 371 kts 289°
2026-04-22 11:51 41.74323 28.45072 31762 ft 371 kts 289°
2026-04-22 11:51 41.75375 28.41948 32028 ft 370 kts 290°
2026-04-22 11:51 41.76430 28.38811 32297 ft 369 kts 290°
2026-04-22 11:52 41.77482 28.35684 32516 ft 369 kts 290°
2026-04-22 11:52 41.78533 28.32559 32726 ft 370 kts 289°
2026-04-22 11:52 41.79594 28.29399 32940 ft 370 kts 289°
2026-04-22 11:52 41.80644 28.26266 33142 ft 371 kts 289°
2026-04-22 11:53 41.81695 28.23129 33313 ft 373 kts 289°
2026-04-22 11:53 41.82758 28.19950 33476 ft 373 kts 289°
2026-04-22 11:53 41.83813 28.16792 33676 ft 374 kts 290°
2026-04-22 11:53 41.84875 28.13613 33851 ft 374 kts 290°
2026-04-22 11:54 41.85943 28.10416 34003 ft 375 kts 289°
2026-04-22 11:54 41.87006 28.07223 34063 ft 377 kts 289°
2026-04-22 11:54 41.89143 28.00801 34070 ft 376 kts 289°
2026-04-22 11:55 41.91272 27.94380 34060 ft 376 kts 290°
2026-04-22 11:55 41.93401 27.88006 34054 ft 377 kts 290°
2026-04-22 11:56 41.95844 27.81792 34037 ft 380 kts 295°
2026-04-22 11:56 41.98772 27.75844 34050 ft 384 kts 301°
2026-04-22 11:57 42.02152 27.70297 34052 ft 388 kts 306°
2026-04-22 11:57 42.05886 27.65070 34054 ft 390 kts 307°
2026-04-22 11:58 42.09691 27.59836 34060 ft 391 kts 307°
2026-04-22 11:58 42.13501 27.54596 34056 ft 392 kts 308°
2026-04-22 11:59 42.17312 27.49351 34051 ft 391 kts 308°
2026-04-22 11:59 42.21130 27.44088 34050 ft 393 kts 308°
2026-04-22 12:00 42.24936 27.38832 34056 ft 393 kts 308°
2026-04-22 12:00 42.28735 27.33576 34048 ft 393 kts 307°
2026-04-22 12:01 42.32564 27.28264 34053 ft 394 kts 307°
2026-04-22 12:01 42.36356 27.22999 34048 ft 394 kts 307°
2026-04-22 12:02 42.40189 27.17667 34040 ft 394 kts 308°
2026-04-22 12:02 42.44018 27.12328 34057 ft 398 kts 308°
2026-04-22 12:03 42.47860 27.06965 34055 ft 398 kts 308°
2026-04-22 12:03 42.51695 27.01601 34062 ft 397 kts 308°
2026-04-22 12:04 42.55540 26.96211 34055 ft 397 kts 308°
2026-04-22 12:04 42.59366 26.90834 34058 ft 400 kts 308°
2026-04-22 12:05 42.63218 26.85416 34071 ft 400 kts 308°
2026-04-22 12:05 42.67082 26.79969 34051 ft 400 kts 308°
2026-04-22 12:06 42.70940 26.74520 34072 ft 401 kts 308°
2026-04-22 12:06 42.74802 26.69054 34057 ft 400 kts 308°
2026-04-22 12:07 42.78654 26.63594 34033 ft 402 kts 308°
2026-04-22 12:07 42.82518 26.58102 34043 ft 402 kts 308°
2026-04-22 12:08 42.86389 26.52591 34010 ft 404 kts 309°
2026-04-22 12:08 42.90262 26.47069 34010 ft 406 kts 309°
2026-04-22 12:09 42.94154 26.41509 34017 ft 406 kts 309°
2026-04-22 12:09 42.98033 26.35956 34017 ft 406 kts 309°
2026-04-22 12:10 43.01944 26.30346 34013 ft 406 kts 308°
2026-04-22 12:10 43.05805 26.24798 34011 ft 407 kts 308°
2026-04-22 12:11 43.09708 26.19179 34021 ft 407 kts 308°
2026-04-22 12:11 43.13611 26.13546 34030 ft 407 kts 308°
2026-04-22 12:12 43.17491 26.07934 34036 ft 408 kts 308°
2026-04-22 12:12 43.21386 26.02291 34042 ft 408 kts 309°
2026-04-22 12:13 43.25262 25.96667 34046 ft 409 kts 309°
2026-04-22 12:13 43.29160 25.90996 34047 ft 410 kts 309°
2026-04-22 12:14 43.33064 25.85305 34053 ft 410 kts 309°
2026-04-22 12:14 43.36989 25.79576 34042 ft 411 kts 309°
2026-04-22 12:15 43.40905 25.73845 34049 ft 411 kts 309°
2026-04-22 12:15 43.44797 25.68138 34049 ft 412 kts 309°
2026-04-22 12:16 43.48730 25.62362 34046 ft 413 kts 309°
2026-04-22 12:16 43.52642 25.56604 34053 ft 413 kts 309°
2026-04-22 12:17 43.56548 25.50843 34050 ft 414 kts 309°
2026-04-22 12:17 43.60466 25.45052 34060 ft 415 kts 309°
2026-04-22 12:18 43.64421 25.39252 34062 ft 415 kts 310°
2026-04-22 12:18 43.68419 25.33554 34058 ft 415 kts 310°
2026-04-22 12:19 43.72452 25.27803 34061 ft 416 kts 310°
2026-04-22 12:19 43.76444 25.22092 34073 ft 416 kts 310°
2026-04-22 12:20 43.80457 25.16333 34059 ft 417 kts 310°
2026-04-22 12:20 43.84469 25.10562 34060 ft 417 kts 310°
2026-04-22 12:21 43.88496 25.04755 34060 ft 418 kts 310°
2026-04-22 12:21 43.92493 24.98979 34056 ft 418 kts 311°
2026-04-22 12:22 43.96536 24.93125 34052 ft 419 kts 311°
2026-04-22 12:22 44.00565 24.87283 34054 ft 420 kts 311°
2026-04-22 12:23 44.04581 24.81447 34055 ft 420 kts 311°
2026-04-22 12:23 44.08613 24.75574 34055 ft 420 kts 311°
2026-04-22 12:24 44.12634 24.69702 34055 ft 420 kts 311°
2026-04-22 12:24 44.16671 24.63795 34055 ft 420 kts 311°
2026-04-22 12:25 44.20670 24.57930 34056 ft 420 kts 311°
2026-04-22 12:25 44.24712 24.51991 34057 ft 420 kts 311°
2026-04-22 12:26 44.28572 24.46310 34057 ft 421 kts 311°
2026-04-22 12:26 44.32588 24.40386 34056 ft 422 kts 311°
2026-04-22 12:27 44.36613 24.34434 34057 ft 421 kts 310°
2026-04-22 12:27 44.40618 24.28498 34058 ft 421 kts 311°
2026-04-22 12:28 44.44635 24.22534 34058 ft 421 kts 311°
2026-04-22 12:28 44.48633 24.16583 34059 ft 421 kts 311°
2026-04-22 12:29 44.52665 24.10572 34059 ft 422 kts 311°
2026-04-22 12:29 44.56668 24.04592 34058 ft 423 kts 311°
2026-04-22 12:30 44.62716 23.95527 34056 ft 423 kts 311°
2026-04-22 12:31 44.66725 23.89501 34054 ft 423 kts 311°
2026-04-22 12:31 44.70757 23.83431 34053 ft 424 kts 311°
2026-04-22 12:32 44.74765 23.77383 34046 ft 424 kts 311°
2026-04-22 12:32 44.80767 23.68301 34040 ft 424 kts 311°
2026-04-22 12:33 44.84761 23.62237 34039 ft 425 kts 311°
2026-04-22 12:33 44.88759 23.56158 34041 ft 425 kts 311°
2026-04-22 12:34 44.92794 23.50007 34042 ft 426 kts 311°
2026-04-22 12:34 44.96790 23.43905 34041 ft 426 kts 311°
2026-04-22 12:35 45.00797 23.37770 34039 ft 426 kts 311°
2026-04-22 12:35 45.04831 23.31580 34036 ft 427 kts 311°
2026-04-22 12:36 45.08848 23.25403 34024 ft 427 kts 311°
2026-04-22 12:36 45.12876 23.19195 34021 ft 427 kts 311°
2026-04-22 12:37 45.16878 23.13013 34012 ft 427 kts 311°
2026-04-22 12:37 45.20875 23.06825 33996 ft 427 kts 311°
2026-04-22 12:38 45.24863 23.00637 33976 ft 428 kts 311°
2026-04-22 12:38 45.28872 22.94405 33965 ft 429 kts 311°
2026-04-22 12:39 45.34880 22.85035 33971 ft 428 kts 311°
2026-04-22 12:40 45.38882 22.78776 33991 ft 429 kts 311°
2026-04-22 12:40 45.42898 22.72486 34000 ft 430 kts 311°
2026-04-22 12:41 45.46906 22.66190 34020 ft 430 kts 311°
2026-04-22 12:41 45.50834 22.59952 34030 ft 431 kts 310°
2026-04-22 12:42 45.54503 22.53213 34041 ft 432 kts 306°
2026-04-22 12:42 45.58065 22.46286 34039 ft 431 kts 306°
2026-04-22 12:43 45.61585 22.39423 34043 ft 431 kts 306°
2026-04-22 12:43 45.65128 22.32502 34055 ft 432 kts 306°
2026-04-22 12:44 45.68670 22.25575 34062 ft 433 kts 306°
2026-04-22 12:44 45.72211 22.18632 34072 ft 433 kts 306°
2026-04-22 12:45 45.75743 22.11687 34068 ft 433 kts 306°
2026-04-22 12:45 45.79308 22.04661 34077 ft 433 kts 306°
2026-04-22 12:46 45.82829 21.97707 34081 ft 433 kts 306°
2026-04-22 12:46 45.86365 21.90708 34075 ft 434 kts 306°
2026-04-22 12:47 45.89897 21.83697 34081 ft 435 kts 306°
2026-04-22 12:47 45.93451 21.76623 34086 ft 436 kts 306°
2026-04-22 12:48 45.96958 21.69626 34078 ft 435 kts 306°
2026-04-22 12:48 46.00499 21.62543 34093 ft 435 kts 306°
2026-04-22 12:49 46.03446 21.56636 34082 ft 435 kts 306°
2026-04-22 12:49 46.07576 21.48340 34098 ft 436 kts 306°
2026-04-22 12:50 46.11097 21.41247 34097 ft 437 kts 306°
2026-04-22 12:50 46.14629 21.34108 34101 ft 437 kts 306°
2026-04-22 12:51 46.18168 21.26943 34103 ft 437 kts 306°
2026-04-22 12:51 46.21687 21.19802 34096 ft 437 kts 306°
2026-04-22 12:52 46.25191 21.12710 34109 ft 436 kts 307°
2026-04-22 12:52 46.29043 21.05982 34105 ft 436 kts 312°
2026-04-22 12:53 46.33096 20.99450 34117 ft 437 kts 313°
2026-04-22 12:53 46.37155 20.92917 34109 ft 438 kts 313°
2026-04-22 12:54 46.41225 20.86347 34090 ft 438 kts 313°
2026-04-22 12:54 46.45282 20.79779 34105 ft 438 kts 313°
2026-04-22 12:55 46.49126 20.73538 34108 ft 437 kts 313°
2026-04-22 12:55 46.53148 20.66990 34115 ft 437 kts 313°
2026-04-22 12:56 46.57187 20.60399 34107 ft 437 kts 313°
2026-04-22 12:56 46.61222 20.53799 34120 ft 438 kts 313°
2026-04-22 12:57 46.65263 20.47173 34112 ft 439 kts 313°
2026-04-22 12:57 46.69314 20.40515 34107 ft 439 kts 313°
2026-04-22 12:58 46.73355 20.33856 34123 ft 440 kts 313°
2026-04-22 12:58 46.77405 20.27169 34106 ft 439 kts 313°
2026-04-22 12:59 46.81448 20.20477 34124 ft 439 kts 313°
2026-04-22 12:59 46.85465 20.13810 34119 ft 440 kts 313°
2026-04-22 13:00 46.89510 20.07080 34125 ft 441 kts 313°
2026-04-22 13:00 46.93557 20.00328 34121 ft 441 kts 313°
2026-04-22 13:01 46.97566 19.93628 34125 ft 441 kts 313°
2026-04-22 13:01 47.01592 19.86878 34133 ft 440 kts 313°
2026-04-22 13:02 47.05439 19.79900 34128 ft 442 kts 308°
2026-04-22 13:02 47.08821 19.72378 34127 ft 443 kts 304°
2026-04-22 13:03 47.12090 19.64739 34124 ft 443 kts 304°
2026-04-22 13:03 47.15302 19.57215 34125 ft 443 kts 304°
2026-04-22 13:04 47.18573 19.49549 34122 ft 443 kts 304°
2026-04-22 13:04 47.21839 19.41879 34123 ft 443 kts 304°
2026-04-22 13:05 47.25091 19.34225 34057 ft 444 kts 304°
2026-04-22 13:05 47.26738 19.30341 33872 ft 444 kts 304°
2026-04-22 13:05 47.28371 19.26483 33689 ft 444 kts 304°
2026-04-22 13:05 47.29990 19.22650 33508 ft 444 kts 304°
2026-04-22 13:06 47.31614 19.18800 33322 ft 444 kts 304°
2026-04-22 13:06 47.33241 19.14852 33132 ft 445 kts 302°
2026-04-22 13:06 47.34705 19.10856 32949 ft 447 kts 299°
2026-04-22 13:06 47.36043 19.06742 32762 ft 448 kts 297°
2026-04-22 13:07 47.37354 19.02570 32575 ft 449 kts 297°
2026-04-22 13:07 47.38657 18.98393 32381 ft 449 kts 297°
2026-04-22 13:07 47.39955 18.94228 32209 ft 449 kts 297°
2026-04-22 13:08 47.42572 18.85831 32150 ft 449 kts 297°
2026-04-22 13:08 47.43859 18.81694 31942 ft 445 kts 297°
2026-04-22 13:08 47.45147 18.77550 31539 ft 442 kts 297°
2026-04-22 13:08 47.46431 18.73416 30928 ft 444 kts 297°
2026-04-22 13:09 47.47715 18.69277 30178 ft 447 kts 297°
2026-04-22 13:09 47.49017 18.65076 29390 ft 450 kts 297°
2026-04-22 13:09 47.50298 18.60930 28616 ft 451 kts 297°
2026-04-22 13:09 47.51600 18.56707 27824 ft 453 kts 297°
2026-04-22 13:10 47.52896 18.52475 27028 ft 454 kts 297°
2026-04-22 13:10 47.54088 18.48113 26329 ft 454 kts 294°
2026-04-22 13:10 47.55106 18.43710 25802 ft 449 kts 291°
2026-04-22 13:10 47.56045 18.39345 25267 ft 445 kts 291°
2026-04-22 13:11 47.56953 18.35064 24748 ft 440 kts 291°
2026-04-22 13:11 47.57868 18.30736 24217 ft 436 kts 290°
2026-04-22 13:11 47.58758 18.26525 23706 ft 431 kts 290°
2026-04-22 13:11 47.59659 18.22266 23194 ft 427 kts 290°
2026-04-22 13:12 47.60543 18.18081 22687 ft 423 kts 290°
2026-04-22 13:12 47.61407 18.13978 22193 ft 420 kts 290°
2026-04-22 13:12 47.62275 18.09855 21690 ft 416 kts 290°
2026-04-22 13:12 47.63124 18.05820 21197 ft 413 kts 290°
2026-04-22 13:13 47.63975 18.01758 20699 ft 409 kts 290°
2026-04-22 13:13 47.64809 17.97776 20204 ft 406 kts 290°
2026-04-22 13:13 47.65642 17.93789 19712 ft 403 kts 290°
2026-04-22 13:13 47.66462 17.89853 19217 ft 399 kts 291°
2026-04-22 13:14 47.67279 17.85933 18725 ft 396 kts 291°
2026-04-22 13:14 47.68084 17.82062 18244 ft 393 kts 290°
2026-04-22 13:14 47.68893 17.78170 17756 ft 390 kts 290°
2026-04-22 13:14 47.69678 17.74382 17274 ft 387 kts 290°
2026-04-22 13:15 47.70472 17.70544 16782 ft 384 kts 290°
2026-04-22 13:15 47.71250 17.66773 16294 ft 382 kts 290°
2026-04-22 13:15 47.72022 17.63027 15808 ft 379 kts 290°
2026-04-22 13:15 47.72787 17.59293 15320 ft 377 kts 290°
2026-04-22 13:16 47.73544 17.55598 14838 ft 374 kts 290°
2026-04-22 13:16 47.74194 17.51906 14355 ft 374 kts 284°
2026-04-22 13:16 47.74495 17.48028 13862 ft 376 kts 276°
2026-04-22 13:16 47.74392 17.44189 13378 ft 376 kts 268°
2026-04-22 13:17 47.74108 17.40328 12885 ft 374 kts 266°
2026-04-22 13:17 47.73799 17.36542 12584 ft 370 kts 266°
2026-04-22 13:17 47.73497 17.32728 12322 ft 369 kts 266°
2026-04-22 13:17 47.73210 17.28943 12064 ft 367 kts 266°
2026-04-22 13:18 47.72930 17.25175 11805 ft 366 kts 266°
2026-04-22 13:18 47.72644 17.21412 11540 ft 359 kts 266°
2026-04-22 13:18 47.72364 17.17792 11280 ft 349 kts 266°
2026-04-22 13:18 47.72087 17.14278 11020 ft 340 kts 266°
2026-04-22 13:19 47.71813 17.10852 10760 ft 331 kts 266°
2026-04-22 13:19 47.71541 17.07503 10500 ft 323 kts 266°
2026-04-22 13:19 47.71272 17.04229 10235 ft 313 kts 266°
2026-04-22 13:19 47.71135 17.01075 9958 ft 299 kts 280°
2026-04-22 13:20 47.71744 16.98271 9692 ft 279 kts 305°
2026-04-22 13:20 47.72882 16.96005 9448 ft 273 kts 313°
2026-04-22 13:20 47.74112 16.93894 9194 ft 271 kts 315°
2026-04-22 13:20 47.75365 16.91806 8940 ft 270 kts 315°
2026-04-22 13:21 47.76622 16.89724 8642 ft 266 kts 315°
2026-04-22 13:21 47.77845 16.87702 8235 ft 266 kts 315°
2026-04-22 13:21 47.79085 16.85657 7851 ft 264 kts 315°
2026-04-22 13:21 47.80310 16.83643 7476 ft 261 kts 315°
2026-04-22 13:22 47.81511 16.81669 7217 ft 252 kts 315°
2026-04-22 13:22 47.82657 16.79777 7010 ft 241 kts 315°
2026-04-22 13:22 47.83757 16.77951 6770 ft 235 kts 315°
2026-04-22 13:22 47.84835 16.76159 6445 ft 233 kts 315°
2026-04-22 13:23 47.85916 16.74366 6046 ft 232 kts 315°
2026-04-22 13:23 47.86981 16.72607 5681 ft 231 kts 315°
2026-04-22 13:23 47.88061 16.70823 5320 ft 229 kts 315°
2026-04-22 13:23 47.89119 16.69081 4942 ft 228 kts 315°
2026-04-22 13:24 47.90267 16.67496 4573 ft 225 kts 329°
2026-04-22 13:24 47.91651 16.66439 4259 ft 221 kts 341°
2026-04-22 13:24 47.93070 16.65754 4041 ft 212 kts 345°
2026-04-22 13:24 47.94484 16.65185 3706 ft 210 kts 346°
2026-04-22 13:25 47.95906 16.64636 3341 ft 211 kts 346°
2026-04-22 13:25 47.97333 16.64053 2949 ft 212 kts 345°
2026-04-22 13:25 47.98738 16.63432 2585 ft 210 kts 343°
2026-04-22 13:25 48.00109 16.62816 2321 ft 204 kts 344°
2026-04-22 13:26 48.00802 16.62511 2188 ft 200 kts 344°
2026-04-22 13:26 48.02435 16.61838 1909 ft 194 kts 345°
2026-04-22 13:26 48.03676 16.61385 1841 ft 170 kts 346°
2026-04-22 13:26 48.04767 16.60886 1493 ft 161 kts 343°
2026-04-22 13:27 48.05806 16.60425 1230 ft 150 kts 344°
2026-04-22 13:27 48.06767 16.60034 1007 ft 139 kts 344°
2026-04-22 13:27 48.07697 16.59637 821 ft 138 kts 344°
2026-04-22 13:27 48.08619 16.59241 675 ft 136 kts 345°
2026-04-22 13:28 48.09511 16.58863 608 ft 123 kts 341°
2026-04-22 13:28 48.10173 16.58583 613 ft 73 kts 345°
2026-04-22 13:28 48.10517 16.58438 612 ft 31 kts 344°
2026-04-22 13:28 48.10699 16.58310 611 ft 27 kts 326°
2026-04-22 13:29 48.10820 16.58145 610 ft 20 kts 314°
2026-04-22 13:29 48.10903 16.58014 610 ft 15 kts 316°
2026-04-22 13:29 48.10968 16.57953 609 ft 9 kts 348°
2026-04-22 13:29 48.11039 16.57933 608 ft 10 kts 346°
2026-04-22 13:30 48.11103 16.57876 608 ft 11 kts 307°
2026-04-22 13:30 48.11139 16.57772 608 ft 11 kts 296°
2026-04-22 13:30 48.11173 16.57666 607 ft 12 kts 297°
2026-04-22 13:30 48.11214 16.57543 607 ft 12 kts 296°
2026-04-22 13:31 48.11254 16.57420 607 ft 13 kts 297°
2026-04-22 13:31 48.11297 16.57292 606 ft 14 kts 295°
2026-04-22 13:31 48.11340 16.57157 605 ft 14 kts 297°
2026-04-22 13:31 48.11386 16.57015 604 ft 15 kts 296°
2026-04-22 13:32 48.11435 16.56865 603 ft 16 kts 297°
2026-04-22 13:32 48.11485 16.56711 601 ft 17 kts 296°
2026-04-22 13:32 48.11538 16.56547 600 ft 17 kts 296°
2026-04-22 13:32 48.11588 16.56395 598 ft 16 kts 297°
2026-04-22 13:33 48.11635 16.56267 596 ft 9 kts 314°
2026-04-22 13:33 48.11696 16.56227 596 ft 9 kts 345°
2026-04-22 13:33 48.11755 16.56202 595 ft 8 kts 344°
2026-04-22 13:33 48.11780 16.56192 595 ft 0 kts 344°
2026-04-22 13:34 48.11783 16.56190 595 ft 0 kts 344°
2026-04-22 13:34 48.11785 16.56189 595 ft 0 kts 345°